• Join FlightAware (Why Join?)
  • Login
  • US Flag 
08:09PM EST


 

Airport Tracker/Info


-or-


 

Live Flight TrackerFlight Track Log ✈ SWA2130 ✈ 03-May-2013 ✈ KELP - KSAT

Flight Track Log - Related Links

Times and Time Zones

All times are in EDT time to prevent confusion due to time zone crossing. See the SWA2130 flight status page for this flight to view local times or setup timezone preferences in your user account.

Time Position Orientation Groundspeed Altitude Reporting Facility
EDT Latitude Longitude Course Direction KTS MPH feet Rate Location/Type
10:59PM 31.7983 -106.2989 91° East 197 227 6,500  Level Albuquerque Center
11:00PM 31.7919 -106.2867 122° Southeast 205 236 7,200 2,656 Climbing Albuquerque Center
11:00PM 31.7533 -106.2400 134° Southeast 260 299 9,200 2,557 Climbing Albuquerque Center
11:01PM 31.7439 -106.2256 128° Southeast 256 295 9,800 3,150 Climbing Albuquerque Center
11:02PM 31.6700 -106.1286 132° Southeast 335 386 13,400 3,541 Climbing Albuquerque Center
11:03PM 31.6356 -106.0164 110° East 366 421 17,000 3,246 Climbing Albuquerque Center
11:04PM 31.6075 -105.8944 105° East 387 445 20,000 2,780 Climbing Albuquerque Center
11:05PM 31.5775 -105.7608 105° East 420 483 22,700 2,634 Climbing Albuquerque Center
11:06PM 31.5469 -105.6219 104° East 438 504 25,400 2,361 Climbing Albuquerque Center
11:07PM 31.5142 -105.4772 105° East 457 526 27,500 1,967 Climbing Albuquerque Center
11:08PM 31.4800 -105.3261 105° East 476 548 29,400 1,721 Climbing Albuquerque Center
11:09PM 31.4442 -105.1681 105° East 492 566 31,000 1,525 Climbing Albuquerque Center
11:10PM 31.4067 -105.0025 105° East 513 590 32,500 1,574 Climbing Albuquerque Center
11:11PM 31.3675 -104.8339 105° East 528 608 34,200 1,770 Climbing Albuquerque Center
11:12PM 31.3289 -104.6636 105° East 534 615 36,100 1,820 Climbing Albuquerque Center
11:13PM 31.2900 -104.4964 105° East 532 612 37,900 1,623 Climbing Albuquerque Center
11:14PM 31.2511 -104.3317 105° East 526 605 39,400 1,220 Climbing Albuquerque Center
11:15PM 31.2122 -104.1664 105° East 526 605 40,400 732 Climbing Albuquerque Center
11:16PM 31.1647 -103.9678 106° East 528 608 40,900 295 Climbing Albuquerque Center
11:17PM 31.1231 -103.8028 106° East 529 609 41,000 49 Climbing Albuquerque Center
11:18PM 31.0861 -103.6514 106° East 527 606 41,000  Level Albuquerque Center
11:19PM 31.0461 -103.4869 106° East 528 608 41,000  Level Albuquerque Center
11:20PM 31.0053 -103.3222 106° East 530 610 41,000  Level Albuquerque Center
11:21PM 30.9650 -103.1589 106° East 529 609 41,000  Level Albuquerque Center
11:22PM 30.9181 -102.9636 106° East 526 605 41,000  Level Albuquerque Center
11:23PM 30.8758 -102.7989 107° East 532 612 41,000  Level Albuquerque Center
11:24PM 30.8353 -102.6353 106° East 532 612 41,000  Level Albuquerque Center
11:25PM 30.7944 -102.4731 106° East 531 611 41,000  Level Albuquerque Center
11:26PM 30.7533 -102.3114 106° East 529 609 41,000  Level Albuquerque Center
11:27PM 30.7119 -102.1494 107° East 528 608 41,000  Level Albuquerque Center
11:28PM 30.6708 -101.9875 106° East 527 606 41,000  Level Albuquerque Center
11:29PM 30.6197 -101.7919 107° East 530 610 41,000  Level Albuquerque Center
11:30PM 30.5947 -101.6900 106° East 532 612 41,000  Level Houston Center
11:31PM 30.5475 -101.5044 106° East 534 615 41,000  Level Houston Center
11:32PM 30.5028 -101.3397 107° East 537 618 41,000 -49 Level Houston Center
11:33PM 30.4589 -101.1733 107° East 540 621 40,900  Descending Houston Center
11:34PM 30.4136 -101.0078 108° East 540 621 41,000 50 Climbing Houston Center
11:35PM 30.3700 -100.8417 107° East 538 619 41,000 -1,033 Level Houston Center
11:36PM 30.3258 -100.6778 107° East 536 617 38,900 -2,361 Descending Houston Center
11:37PM 30.2822 -100.5139 107° East 533 613 36,200 -2,951 Descending Houston Center
11:38PM 30.2367 -100.3461 107° East 540 621 32,900 -3,049 Descending Houston Center
11:39PM 30.1922 -100.1783 107° East 536 617 30,000 -2,678 Descending Houston Center
11:40PM 30.1489 -100.0222 108° East 509 586 27,500 -2,380 Descending Houston Center
11:41PM 30.1083 -99.8772 108° East 478 550 25,200 -2,262 Descending Houston Center
11:42PM 30.0689 -99.7372 108° East 462 532 22,900 -2,213 Descending Houston Center
11:43PM 30.0314 -99.6028 108° East 444 511 20,700 -2,132 Descending Houston Center
11:44PM 29.9944 -99.4725 108° East 430 495 18,600 -2,033 Descending Houston Center
11:45PM 29.9600 -99.3475 108° East 411 473 16,600 -2,157 Descending Houston Center
11:46PM 29.9392 -99.2789 109° East 407 468 15,400 -2,164 Descending Houston Center
11:46PM 29.9258 -99.2250 106° East 400 460 14,400 -2,219 Descending Houston Center
11:47PM 29.8911 -99.1350 114° Southeast 388 447 12,700 -2,200 Descending Houston Center
11:47PM 29.8800 -99.1125 120° Southeast 389 448 12,200 -1,636 Descending Houston Center
11:48PM 29.8331 -99.0453 129° Southeast 373 429 11,200 -1,377 Descending Houston Center
11:48PM 29.8100 -99.0075 125° Southeast 370 426 10,800 -1,100 Descending Houston Center
11:49PM 29.7747 -98.9558 128° Southeast 346 398 10,100 -885 Descending Houston Center
11:49PM 29.7508 -98.9247 131° Southeast 336 387 9,900 -982 Descending Houston Center
11:50PM 29.7167 -98.8903 139° Southeast 307 353 9,200 -1,279 Descending Houston Center
11:50PM 29.6839 -98.8536 136° Southeast 306 352 8,600 -1,100 Descending Houston Center
11:51PM 29.6561 -98.8253 138° Southeast 297 342 8,100 -1,200 Descending Houston Center
11:51PM 29.6231 -98.7914 138° Southeast 295 339 7,400 -1,180 Descending Houston Center
11:52PM 29.5961 -98.7650 140° Southeast 283 326 6,900 -1,180 Descending Houston Center
11:52PM 29.5683 -98.7289 131° Southeast 281 323 6,200 -1,279 Descending Houston Center
11:53PM 29.5422 -98.7017 138° Southeast 273 314 5,600 -1,300 Descending Houston Center
11:53PM 29.5156 -98.6675 132° Southeast 273 314 4,900 -1,200 Descending Houston Center
11:54PM 29.4908 -98.6431 139° Southeast 268 308 4,400 -885 Descending Houston Center
11:54PM 29.4633 -98.6106 134° Southeast 262 302 4,000 -436 Descending Houston Center
11:55PM 29.4442 -98.5908 138° Southeast 249 287 4,000  Level Houston Center
11:55PM 29.4128 -98.5556 136° Southeast 237 273 4,000  Level Houston Center
11:56PM 29.3975 -98.5414 141° Southeast 224 258 4,000  Level Houston Center
11:56PM 29.3675 -98.5061 134° Southeast 226 260 4,000  Level Houston Center
11:57PM 29.3508 -98.4917 143° Southeast 226 260 4,000  Level Houston Center
11:57PM 29.3278 -98.4517 123° Southeast 227 261 4,000  Level Houston Center
11:58PM 29.3267 -98.4347 94° East 224 258 4,000  Level Houston Center
11:58PM 29.3544 -98.3944 52° Northeast 216 249 4,000  Level Houston Center
11:59PM 29.3644 -98.3869 33° Northeast 210 242 4,000 -689 Level Houston Center
11:59PM 29.4078 -98.3719 17° North 207 238 3,300 -800 Descending Houston Center
12:00AM 29.4614 -98.3831 350° North 195 224 2,600 -694 Descending Houston Center
12:01AM 29.4931 -98.4206 314° West 164 189 1,900 -744 Descending Houston Center
12:02AM 29.5181 -98.4528 312° West 142 163 1,100 -800 Descending Houston Center